Location: Lussas
(44.6119°N, 4.4726°E)
Time: 23:44:04
(UTC+00:00)

SAR-Lupe-1 - Pass Details

Date: 19 April 2021
Orbit: 482 x 483 km, 98.2° (Epoch: 30 March)

Event Time Altitude Azimuth Distance (km) Brightness Sun altitude
Rises 19:10:01 0° 10° (N) 2,559 7.9 -7.1°
Reaches altitude 10° 19:12:06 10° 7° (N) 1,674 7.0 -7.5°
Maximum altitude 19:15:39 63° 287° (WNW) 545 4.6 -8.1°
Drops below altitude 10° 19:19:11 10° 205° (SSW) 1,659 6.8 -8.6°
Sets 19:21:15 0° 202° (SSW) 2,534 7.7 -9.0°
